Stations météo

Publicité
Antwerpen, Belgique (6450): Température de l'air & dewpoint: 11.02.2020 23:00:00 - 17.02.2020 23:00:00 (CET)Antwerpen, Belgique (6450): Vitesse du vent & gusts: 11.02.2020 23:00:00 - 17.02.2020 23:00:00 (CET)Antwerpen, Belgique (6450): Direction du vent: 11.02.2020 23:00:00 - 17.02.2020 23:00:00 (CET)Antwerpen, Belgique (6450): reduced air pressure: 11.02.2020 23:00:00 - 17.02.2020 23:00:00 (CET)Antwerpen, Belgique (6450): visibility: 11.02.2020 23:00:00 - 17.02.2020 23:00:00 (CET)
Date & Time tt [°C] td [°C] ff [km/h] ff [knt] fx [km/h] fx [knt] dd ppp [hPa] vv [km]
17.02.2020 23:00:00 7,9 5,1 24 13 47 25 WSW 1016,5 10
17.02.2020 22:00:00 8,0 4,4 26 14 - - WSW 1016,1 10
17.02.2020 21:00:00 8,4 4,5 26 14 47 25 WSW 1015,3 10
17.02.2020 20:00:00 8,5 4,5 24 13 40 21 SW 1014,7 10
17.02.2020 19:00:00 8,1 5,3 26 14 - - WSW 1014,0 10
17.02.2020 18:00:00 8,4 4,5 24 13 43 23 SW 1013,5 10
17.02.2020 17:00:00 6,7 4,2 24 13 54 29 W 1013,6 4,0
17.02.2020 16:00:00 10,4 1,9 29 16 - - WSW 1012,5 10
17.02.2020 15:00:00 8,9 3,7 21 11 36 19 SW 1012,6 10
17.02.2020 14:00:00 6,8 3,3 24 13 54 29 WNW 1013,0 10
17.02.2020 13:00:00 10,2 2,7 35 19 - - WSW 1012,6 10
17.02.2020 12:00:00 10,4 3,4 35 19 58 31 SW 1012,4 10
17.02.2020 11:00:00 10,0 3,9 32 18 54 29 SW 1012,1 20
17.02.2020 10:00:00 8,4 3,7 25 14 - - SSW 1012,2 20
17.02.2020 09:00:00 7,3 3,4 22 12 32 18 SSW 1012,1 20
17.02.2020 08:00:00 7,3 3,2 22 12 32 18 SW 1011,9 20
17.02.2020 07:00:00 7,4 3,1 22 12 - - SW 1011,8 20
17.02.2020 06:00:00 7,3 2,9 22 12 36 19 SSW 1011,8 15
17.02.2020 05:00:00 7,6 2,8 18 10 36 19 SW 1011,7 14
17.02.2020 04:00:00 8,0 2,4 25 14 - - WSW 1011,4 13
17.02.2020 03:00:00 8,4 2,3 29 16 76 41 WSW 1010,6 15
17.02.2020 02:00:00 9,1 3,8 32 18 65 35 WSW 1009,3 13
17.02.2020 01:00:00 9,3 4,1 29 16 - - WSW 1008,2 35
17.02.2020 00:00:00 8,8 5,4 26 14 43 23 SW 1006,8 10
16.02.2020 23:00:00 8,7 5,9 26 14 40 21 SW 1005,4 10
16.02.2020 22:00:00 8,6 6,2 22 12 - - SW 1004,8 10
16.02.2020 21:00:00 8,7 6,5 24 13 47 25 WSW 1004,2 10
16.02.2020 20:00:00 8,6 6,9 24 13 58 31 WSW 1003,2 9
16.02.2020 19:00:00 8,7 7,3 35 19 - - WNW 1001,9 9
16.02.2020 18:00:00 17,4 10,3 63 34 97 53 SSW 996,9 10
16.02.2020 17:00:00 17,2 9,9 54 29 86 47 SSW 997,1 10
16.02.2020 16:00:00 16,8 10,0 50 27 - - SSW 997,7 10
16.02.2020 15:00:00 16,4 9,7 52 28 94 51 SSW 998,9 10
16.02.2020 14:00:00 16,2 9,6 50 27 79 43 SSW 999,5 10
16.02.2020 13:00:00 15,9 9,1 48 26 - - SSW 1000,3 10
16.02.2020 12:00:00 15,3 8,6 41 22 76 41 SSW 1001,5 10
16.02.2020 11:00:00 14,5 8,8 41 22 79 43 SSW 1001,8 10
16.02.2020 10:00:00 14,0 8,8 37 20 - - SSW 1001,8 10
16.02.2020 09:00:00 13,0 9,8 39 21 72 39 SSW 1002,0 8
16.02.2020 08:00:00 13,0 9,7 35 19 68 37 SSW 1002,7 10
16.02.2020 07:00:00 12,3 10,0 35 19 - - SSW 1003,1 7
16.02.2020 06:00:00 12,2 10,2 39 21 58 31 SSW 1004,1 10
16.02.2020 05:00:00 12,1 9,9 35 19 72 39 SSW 1004,5 9
16.02.2020 04:00:00 13,4 8,2 41 22 - - SSW 1005,2 10
16.02.2020 03:00:00 13,8 7,5 35 19 65 35 SSW 1006,4 10
16.02.2020 02:00:00 13,6 7,4 37 20 65 35 SSW 1006,7 10
16.02.2020 01:00:00 13,3 7,4 37 20 - - SSW 1007,3 10
16.02.2020 00:00:00 13,1 7,5 37 20 61 33 SSW 1008,0 10
15.02.2020 23:00:00 12,8 6,8 35 19 65 35 SSW 1008,2 10
15.02.2020 22:00:00 12,8 6,4 37 20 - - SSW 1009,0 10
15.02.2020 21:00:00 12,5 6,3 37 20 61 33 SSW 1009,7 10
15.02.2020 20:00:00 12,4 6,4 34 18 58 31 S 1010,6 10
15.02.2020 19:00:00 12,4 6,4 26 14 - - S 1011,8 10
15.02.2020 18:00:00 12,4 6,6 24 13 43 23 S 1011,7 10
15.02.2020 17:00:00 13,0 6,7 26 14 47 25 S 1012,6 10
15.02.2020 16:00:00 12,9 6,9 26 14 - - SSW 1013,2 10
15.02.2020 15:00:00 12,7 7,1 28 15 54 29 SSW 1014,2 10
15.02.2020 14:00:00 12,7 7,3 31 17 50 27 SSW 1015,0 10
15.02.2020 13:00:00 11,4 7,0 22 12 - - SSW 1016,0 10
15.02.2020 12:00:00 10,6 6,7 26 14 43 23 SSW 1016,7 10
15.02.2020 11:00:00 9,4 5,9 26 14 40 21 SSW 1017,4 10
15.02.2020 10:00:00 9,0 5,5 24 13 - - SSW 1018,4 10
15.02.2020 09:00:00 8,8 5,2 21 11 36 19 SSW 1018,5 10
15.02.2020 08:00:00 8,8 5,0 21 11 36 19 SSW 1018,8 10
15.02.2020 07:00:00 9,1 5,1 21 11 - - SSW 1018,9 10
15.02.2020 06:00:00 9,0 4,9 21 11 32 18 SSW 1019,1 10
15.02.2020 05:00:00 8,8 4,8 15 8 29 16 SSW 1019,7 10
15.02.2020 04:00:00 8,8 4,9 16 9 - - SSW 1020,0 10
15.02.2020 03:00:00 8,6 4,7 15 8 25 14 SSW 1020,4 10
15.02.2020 02:00:00 8,8 4,9 15 8 25 14 SSW 1020,8 10
15.02.2020 01:00:00 8,9 4,7 15 8 - - SSW 1021,0 10
15.02.2020 00:00:00 9,0 4,5 16 9 25 14 SSW 1021,2 10
14.02.2020 23:00:00 8,8 4,1 15 8 25 14 SSW 1021,9 10
14.02.2020 22:00:00 8,7 4,6 15 8 - - SSW 1022,4 10
14.02.2020 21:00:00 8,7 4,7 13 7 22 12 S 1022,6 10
14.02.2020 20:00:00 9,3 4,6 13 7 22 12 SSW 1022,8 10
14.02.2020 19:00:00 9,7 4,9 13 7 - - SW 1022,5 10
14.02.2020 18:00:00 9,9 4,5 9 5 29 16 SW 1021,8 10
14.02.2020 17:00:00 9,8 3,9 16 9 32 18 SW 1021,7 10
14.02.2020 16:00:00 9,7 3,7 18 10 - - SW 1021,4 10
14.02.2020 15:00:00 9,7 3,8 16 9 32 18 SW 1021,4 10
14.02.2020 14:00:00 9,6 3,2 21 11 29 16 SW 1021,6 10
14.02.2020 13:00:00 8,5 2,7 16 9 - - WSW 1022,0 10
14.02.2020 12:00:00 7,9 2,7 11 6 22 12 WSW 1021,9 10
14.02.2020 11:00:00 7,6 3,4 13 7 22 12 SW 1021,0 10
14.02.2020 10:00:00 7,1 3,6 15 8 - - WSW 1020,0 10
14.02.2020 09:00:00 7,0 3,5 15 8 22 12 W 1019,5 10
14.02.2020 08:00:00 7,0 2,9 16 9 25 14 W 1017,8 10
14.02.2020 07:00:00 6,8 3,6 16 9 - - W 1016,5 10
14.02.2020 06:00:00 6,9 2,9 18 10 36 19 W 1015,3 10
14.02.2020 05:00:00 6,8 3,4 24 13 36 19 WNW 1013,7 10
14.02.2020 04:00:00 6,8 4,1 18 10 - - W 1012,7 10
14.02.2020 03:00:00 6,9 4,0 21 11 43 23 W 1011,5 10
14.02.2020 02:00:00 7,2 4,0 26 14 43 23 WNW 1009,9 10
14.02.2020 01:00:00 7,3 5,8 15 8 - - W 1008,6 10
14.02.2020 00:00:00 7,3 5,6 16 9 29 16 W 1007,1 10
13.02.2020 23:00:00 7,5 6,2 18 10 29 16 WNW 1005,8 10
13.02.2020 22:00:00 7,7 6,2 26 14 - - W 1003,1 10
13.02.2020 21:00:00 7,7 6,2 24 13 36 19 W 1000,6 10
13.02.2020 20:00:00 7,5 6,3 13 7 32 18 W 998,2 10
13.02.2020 19:00:00 8,4 5,6 16 9 - - SW 996,5 10
13.02.2020 18:00:00 8,3 5,9 15 8 32 18 SSW 995,7 10
13.02.2020 17:00:00 8,4 5,5 18 10 40 21 SW 995,7 8
13.02.2020 16:00:00 9,3 5,2 24 13 - - SW 995,7 10
13.02.2020 15:00:00 10,2 5,0 21 11 40 21 SW 996,2 10
13.02.2020 14:00:00 9,6 5,1 22 12 40 21 SW 996,6 10
13.02.2020 13:00:00 8,1 5,3 24 13 - - SSW 997,5 10
13.02.2020 12:00:00 7,2 5,0 29 16 58 31 SW 998,0 10
13.02.2020 11:00:00 6,6 5,0 28 15 43 23 S 998,5 10
13.02.2020 10:00:00 5,6 3,8 28 15 - - SSE 998,9 10
13.02.2020 09:00:00 4,8 3,9 21 11 32 18 SSE 1001,8 5
13.02.2020 08:00:00 5,3 3,9 18 10 29 16 SSE 1004,5 8
13.02.2020 07:00:00 5,6 2,6 21 11 - - S 1006,2 7
13.02.2020 06:00:00 5,2 2,3 16 9 22 12 S 1008,6 10
13.02.2020 05:00:00 3,8 1,4 15 8 22 12 SSE 1010,4 10
13.02.2020 04:00:00 3,5 1,2 11 6 - - SSE 1011,6 10
13.02.2020 03:00:00 4,4 1,2 13 7 18 10 S 1013,1 10
13.02.2020 02:00:00 3,9 0,9 9 5 18 10 S 1014,1 10
13.02.2020 01:00:00 4,4 1,2 11 6 - - S 1015,4 10
13.02.2020 00:00:00 4,8 1,7 11 6 22 12 SSW 1016,1 10
12.02.2020 23:00:00 5,2 1,7 14 8 25 14 SW 1016,7 50
12.02.2020 22:00:00 5,2 0,9 13 7 - - SSW 1016,6 10
12.02.2020 21:00:00 5,7 0,3 13 7 22 12 SW 1017,1 10
12.02.2020 20:00:00 6,2 -0,1 13 7 22 12 SW 1017,1 10
12.02.2020 19:00:00 6,6 -0,7 15 8 - - SW 1017,0 10
12.02.2020 18:00:00 7,0 -1,7 22 12 40 21 W 1016,7 10
12.02.2020 17:00:00 7,4 -2,0 28 15 43 23 W 1016,3 10
12.02.2020 16:00:00 7,8 -1,4 22 12 - - WNW 1015,9 10
12.02.2020 15:00:00 8,1 -2,5 29 16 54 29 W 1015,6 10
12.02.2020 14:00:00 8,2 -2,6 35 19 54 29 W 1015,5 10
12.02.2020 13:00:00 7,6 -0,8 31 17 - - W 1015,5 10
12.02.2020 12:00:00 7,2 -0,3 28 15 50 27 W 1015,6 10
12.02.2020 11:00:00 6,2 0,5 22 12 43 23 WSW 1015,0 10
12.02.2020 10:00:00 4,7 0,5 18 10 - - SW 1014,7 10
12.02.2020 09:00:00 3,5 0,9 15 8 25 14 SW 1014,4 10
12.02.2020 08:00:00 3,6 0,1 15 8 22 12 SW 1013,6 10
12.02.2020 07:00:00 3,5 0,0 13 7 - - SW 1013,3 10
12.02.2020 06:00:00 3,6 0,4 16 9 29 16 SW 1012,7 10
12.02.2020 05:00:00 4,5 -0,1 21 11 47 25 WSW 1012,4 10
12.02.2020 04:00:00 4,7 -0,7 22 12 - - WSW 1011,9 10
12.02.2020 03:00:00 4,7 -1,3 18 10 43 23 SW 1011,7 10
12.02.2020 02:00:00 5,2 -1,4 24 13 50 27 WSW 1011,8 10
12.02.2020 01:00:00 5,3 -1,9 34 18 - - W 1011,5 10
12.02.2020 00:00:00 5,5 -2,4 34 18 50 27 W 1011,2 10
11.02.2020 23:00:00 5,4 -1,9 24 13 43 23 W 1011,6 10

tt = Température de l'air
td = dewpoint
ff = Vitesse du vent
fx = gusts
dd = Direction du vent
ppp = reduced air pressure
vv = visibility

stations d'obs. à proximité